Location: ?????oe
(44.4874°N, 135.7046°E)
Time: 08:08:10
(UTC+00:00)

KORONAS-FOTON - Pass Details

Date: 13 December 2025
Orbit: 433 x 448 km, 82.4° (Epoch: 13 January)

Event Time Altitude Azimuth Distance (km) Brightness Sun altitude
Exits shadow 21:10:00 - 352° (N) 2,005 6.5 -12.9°
Reaches altitude 10° 21:11:05 10° 352° (N) 1,547 5.9 -12.7°
Maximum altitude 21:14:27 86° 79° (E) 441 3.4 -12.2°
Drops below altitude 10° 21:17:48 10° 171° (S) 1,535 6.6 -11.6°
Sets 21:19:50 0° 172° (S) 2,400 7.6 -11.3°
